Tracking 29892 objects as of 21-Nov-2024
HD Live streaming from Space Station
objects crossing your sky now

FENGYUN 1C DEB

Track FENGYUN 1C DEB now!
10-day predictions


NORAD ID: 29888
Int'l Code: 1999-025GJ
Perigee: 636.7 km
Apogee: 1,041.4 km
Inclination: 99.2 °
Period: 101.5 minutes
Semi major axis: 7210 km
RCS: 0.0715 m2 (small)
Launch date: May 10, 1999
Source: People's Republic of China (PRC)
Launch site: Taiyaun Space Center, China (TSC)

Note: This is SATELLITE DEBRIS
Your satellite tracking list
Your tracking list is empty




NASA's NSSDC Master Catalog

Two Line Element Set (TLE):
1 29888U 99025GJ  24324.90620788  .00001846  00000-0  62660-3 0  9997
2 29888  99.1892 136.5502 0280685  46.3944 316.0154 14.18065678920036
Source of the keplerian elements: AFSPC